Regional Weather Roundup
Issued by NWS

Home | Current Version | Previous Version | Graphics & Text | Print | Product List | Glossary On
Versions: 1 2 3 4 5 6 7 8 9 10 11 12 13 14 15 16 17 18 19 20 21 22 23 24 25 26 27 28 29 30 31 32 33 34 35 36 37 38 39 40 41 42 43 44 45 46 47 48 49 50
000
ASUS45 KBOU 050507
RWRCO

WEATHER ROUNDUP FOR COLORADO
NATIONAL WEATHER SERVICE DENVER/BOULDER CO
1100 PM MDT FRI SEP 04 2015

NOTE: "FAIR" INDICATES FEW OR NO CLOUDS BELOW 12000 FEET WITH NO
SIGNIFICANT WEATHER AND/OR OBSTRUCTIONS TO VISIBILITY.

COZ001>005-013-030-031-050600-
...NORTHWEST COLORADO...

CITY           SKY/WX    TMP DP  RH WIND       PRES   REMARKS
CRAIG          PTCLDY    55  46  71 N3        30.06R
HAYDEN         MOCLDY    59  43  55 NE5       30.09R
MEEKER         MOCLDY    61  46  57 NE8       30.07R
MOUNT WERNER   NOT AVBL
STEAMBOAT SPGS MOCLDY    56  45  65 N3        30.11S
WALDEN         CLOUDY    50  43  76 SW3       30.20R
$$

COZ006>008-011-050600-
...WEST CENTRAL VALLEYS...

CITY           SKY/WX    TMP DP  RH WIND       PRES   REMARKS
GRAND JUNCTION CLOUDY    64  56  75 SE16      29.99S
MONTROSE       CLOUDY    62  51  67 SE8       30.08F
EAGLE          CLOUDY    57  54  88 CALM      30.15F
RIFLE          MOCLDY    57  55  93 S5        30.06S
DELTA          RAIN      63  56  80 E6        30.05S
NUCLA          CLOUDY    61  52  72 SE3       30.12R THUNDER
$$

COZ017>023-064>068-050600-
...SOUTHWEST COLORADO...

CITY           SKY/WX    TMP DP  RH WIND       PRES   REMARKS
DURANGO        CLOUDY    58  56  93 E6        30.20S
CORTEZ         MOCLDY    65  53  65 SE10G22   30.10S
PAGOSA SPRINGS DRIZZLE   56  56  99 CALM      30.27S
TELLURIDE      CLOUDY    52  45  77 CALM      30.30S
WOLF CREEK PAS NOT AVBL
$$

COZ009-010-012-014-032>034-037-058>063-050600-
...CENTRAL COLORADO...

CITY           SKY/WX    TMP DP  RH WIND       PRES   REMARKS
ASPEN          CLOUDY    52  49  89 SW6       30.19F
BUENA VISTA    CLOUDY    55  51  85 CALM      30.24R
COPPER MTN     CLOUDY    45  37  76 S13       30.46F
BERTHOUD PASS  DRIZZLE   36  25  64 W23       30.50S
COTTONWOOD PAS CLOUDY    52  45  76 N3        30.35S
GUNNISON       CLOUDY    54  48  82 N3        30.25F
KREMMLING      CLOUDY    54  50  87 CALM      30.20F
LEADVILLE      CLOUDY    46  46 100 CALM      30.33F
MONARCH PASS   FOG       41  39  93 W17       30.57S VSB<1/4
SALIDA         CLOUDY    61  52  72 SW3       30.29S
SUNLIGHT       CLOUDY    46  45  93 CALM      30.39F
WILKERSON PASS CLOUDY    45  43  93 SW12G20   30.44F FOG
$$

COZ069>075-050600-
...SAN LUIS VALLEY/SANGRE DE CRISTO MOUNTAINS...

CITY           SKY/WX    TMP DP  RH WIND       PRES   REMARKS
ALAMOSA        CLOUDY    57  49  74 S15       30.22F
LA VETA PASS   CLOUDY    46  43  87 S13       30.35S
SAGUACHE       RAIN      54  52  94 CALM      30.26S
$$

COZ035-036-038>040-050600-
...NORTHERN COLORADO FRONT RANGE...

CITY           SKY/WX    TMP DP  RH WIND       PRES   REMARKS
DENVER INTL AP CLOUDY    70  49  47 S8        29.97S
DMNS CITY PARK   N/A     70  51  50 SW5       29.97F
AURORA         CLOUDY    70  51  51 S6        30.00F
FRONT RANGE AP NOT AVBL
ERIE MUNI ARPT CLOUDY    65  50  58 S3        29.96S
BOULDER MUN AP CLOUDY    70  46  43 SW5       29.97S
CENTENNIAL     CLOUDY    70  50  49 SW10      30.01F
BROOMFIELD     NOT AVBL
FORT COLLINS   CLOUDY    68  48  49 CALM      29.96S
LONGMONT       CLOUDY    69  48  47 W3        29.97S
$$

COZ041-046-047-076>085-087-088-050600-
...PIKES PEAK/PALMER DIVIDE AND SOUTHERN FOOTHILLS...

CITY           SKY/WX    TMP DP  RH WIND       PRES   REMARKS
COLO. SPRINGS  CLOUDY    68  48  48 SE5       30.04F
A. F. ACADEMY  CLOUDY    65  46  51 N6        30.06F
ELLICOTT       CLOUDY     1  32 100 S8        30.04F WCI -13
FALCON         CLOUDY    63  47  55 S3        30.10F
FORT CARSON    CLOUDY    70  49  47 SW5       30.01F
LIMON          CLOUDY    73  49  42 SW8       29.99S
MONUMENT HILL  CLOUDY    57  46  67 S5        30.11F
TRINIDAD       MOCLDY    71  47  42 SW15G22   30.08S
$$

COZ042>045-048>051-090-091-050600-
...NORTHEAST COLORADO...

CITY           SKY/WX    TMP DP  RH WIND       PRES   REMARKS
GREELEY ARPT   CLOUDY    68  55  64 CALM      29.93F
AKRON          CLOUDY    69  57  65 N7        29.91F
BURLINGTON     CLOUDY    76  51  41 S10       29.92R
WRAY           CLOUDY    82  50  33 SE13G18   29.85F
STERLING       CLOUDY    68  63  83 CALM      29.89R
HOLYOKE        MOCLDY    73  57  56 E3        29.87F
FORT MORGAN    CLOUDY    71  49  45 SW3       29.91F
$$

COZ086-089-092>099-050600-
...SOUTHEAST COLORADO...

CITY           SKY/WX    TMP DP  RH WIND       PRES   REMARKS
PUEBLO         CLOUDY    74  50  42 SW5       29.96R
LA JUNTA       CLOUDY    81  49  32 SW10      29.94S
LAMAR          CLOUDY    82  48  30 SW12      29.90S
SPRINGFIELD      N/A     75  50  41 S9        30.00R
$$




USA.gov is the U.S. government's official web portal to all federal, state and local government web resources and services.